timestamp,wind_dir_avg,wind_spd_avg,wind_spd_max_dir,wind_spd_gust,battery_voltage,lat,long
2023-02-07 00:04:00+00:00,112.0,0.82,111.0,1.08,12.17,47.59359,-54.27349
2023-02-07 00:14:00+00:00,117.0,0.76,116.0,0.95,12.09,47.59359,-54.27349
2023-02-07 00:24:00+00:00,92.0,0.42,86.0,0.67,12.09,47.59359,-54.27349
2023-02-07 00:34:00+00:00,90.0,0.12,94.0,0.22,12.09,47.59359,-54.27349
2023-02-07 00:44:00+00:00,60.0,0.38,65.0,0.5,12.09,47.59359,-54.27349
2023-02-07 00:54:00+00:00,48.0,0.92,50.0,1.07,12.09,47.59359,-54.27349
2023-02-07 01:04:00+00:00,29.0,1.31,31.0,1.42,12.09,47.59359,-54.27349
2023-02-07 01:14:00+00:00,37.0,6.98,34.0,7.89,12.09,47.59359,-54.27349
2023-02-07 01:24:00+00:00,35.0,8.25,32.0,9.28,12.09,47.59359,-54.27349
2023-02-07 01:34:00+00:00,35.0,9.01,33.0,9.64,12.09,47.59359,-54.27349
2023-02-07 01:44:00+00:00,38.0,8.24,46.0,9.57,12.09,47.59359,-54.27349
2023-02-07 01:54:00+00:00,32.0,8.96,32.0,10.0,12.09,47.59359,-54.27349
2023-02-07 02:04:00+00:00,30.0,9.26,31.0,10.18,12.09,47.59359,-54.27349
2023-02-07 02:14:00+00:00,31.0,8.82,29.0,9.93,12.01,47.59359,-54.27349
2023-02-07 02:24:00+00:00,33.0,8.56,31.0,9.92,12.01,47.59359,-54.27349
2023-02-07 02:34:00+00:00,27.0,9.1,30.0,10.07,12.01,47.59359,-54.27349
2023-02-07 02:44:00+00:00,28.0,8.91,28.0,10.37,12.01,47.59359,-54.27349
2023-02-07 02:54:00+00:00,30.0,8.79,29.0,10.01,12.01,47.59359,-54.27349
2023-02-07 03:04:00+00:00,31.0,8.8,26.0,9.89,12.01,47.59359,-54.27349
2023-02-07 03:14:00+00:00,24.0,9.51,27.0,10.28,12.01,47.59359,-54.27349
2023-02-07 03:24:00+00:00,24.0,9.6,22.0,10.69,12.01,47.59359,-54.27349
2023-02-07 03:34:00+00:00,27.0,9.02,29.0,10.14,12.01,47.59359,-54.27349
2023-02-07 03:44:00+00:00,26.0,9.58,35.0,11.14,12.01,47.59359,-54.27349
2023-02-07 03:54:00+00:00,27.0,9.3,24.0,10.74,12.01,47.59359,-54.27349
2023-02-07 04:04:00+00:00,22.0,9.14,33.0,10.85,12.01,47.59359,-54.27349
2023-02-07 04:14:00+00:00,25.0,8.68,17.0,10.78,12.01,47.59359,-54.27349
2023-02-07 04:24:00+00:00,25.0,8.82,32.0,11.54,12.01,47.59359,-54.27349
2023-02-07 04:34:00+00:00,23.0,9.31,18.0,10.51,12.01,47.59359,-54.27349
2023-02-07 04:44:00+00:00,21.0,9.96,34.0,12.38,12.01,47.59359,-54.27349
2023-02-07 04:54:00+00:00,23.0,10.54,33.0,12.42,12.01,47.59359,-54.27349
2023-02-07 05:04:00+00:00,20.0,10.06,22.0,11.65,12.01,47.59359,-54.27349
2023-02-07 05:14:00+00:00,26.0,11.3,30.0,13.0,12.01,47.59359,-54.27349
2023-02-07 05:24:00+00:00,32.0,11.99,35.0,13.65,12.01,47.59359,-54.27349
2023-02-07 05:34:00+00:00,22.0,12.93,22.0,13.78,12.01,47.59359,-54.27349
2023-02-07 05:44:00+00:00,22.0,11.06,24.0,13.05,12.01,47.59359,-54.27349
2023-02-07 05:54:00+00:00,17.0,11.26,17.0,11.99,12.01,47.59359,-54.27349
2023-02-07 06:04:00+00:00,21.0,10.49,25.0,12.12,12.01,47.59359,-54.27349
2023-02-07 06:14:00+00:00,20.0,10.69,21.0,12.34,12.01,47.59359,-54.27349
2023-02-07 06:24:00+00:00,19.0,11.03,14.0,12.85,12.01,47.59359,-54.27349
2023-02-07 06:34:00+00:00,20.0,10.93,16.0,12.86,12.01,47.59359,-54.27349
2023-02-07 06:44:00+00:00,20.0,11.36,23.0,13.32,12.01,47.59359,-54.27349
2023-02-07 06:54:00+00:00,15.0,10.02,14.0,13.18,12.01,47.59359,-54.27349
2023-02-07 07:04:00+00:00,23.0,11.09,27.0,13.0,12.01,47.59359,-54.27349
2023-02-07 07:14:00+00:00,28.0,12.74,20.0,14.56,12.01,47.59359,-54.27349
2023-02-07 07:24:00+00:00,15.0,12.9,16.0,15.08,12.01,47.59359,-54.27349
2023-02-07 07:34:00+00:00,18.0,12.64,15.0,14.54,12.01,47.59359,-54.27349
2023-02-07 07:44:00+00:00,22.0,11.2,26.0,13.11,12.01,47.59359,-54.27349
2023-02-07 07:54:00+00:00,25.0,12.61,34.0,14.46,12.01,47.59359,-54.27349
2023-02-07 08:04:00+00:00,23.0,11.9,29.0,15.31,12.01,47.59359,-54.27349
2023-02-07 08:14:00+00:00,16.0,10.81,18.0,13.24,12.01,47.59359,-54.27349
2023-02-07 08:24:00+00:00,25.0,11.44,33.0,13.36,12.01,47.59359,-54.27349
2023-02-07 08:34:00+00:00,21.0,14.09,30.0,16.33,12.01,47.59359,-54.27349
2023-02-07 08:44:00+00:00,35.0,15.04,36.0,17.69,12.01,47.59359,-54.27349
2023-02-07 08:54:00+00:00,31.0,12.03,34.0,13.79,12.01,47.59359,-54.27349
2023-02-07 09:04:00+00:00,36.0,14.2,48.0,17.56,12.01,47.59359,-54.27349
2023-02-07 09:14:00+00:00,31.0,15.94,34.0,17.73,12.01,47.59359,-54.27349
2023-02-07 09:24:00+00:00,35.0,13.18,33.0,16.15,12.01,47.59359,-54.27349
2023-02-07 09:34:00+00:00,34.0,11.87,40.0,14.43,12.01,47.59359,-54.27349
2023-02-07 09:44:00+00:00,36.0,13.38,33.0,15.39,12.01,47.59359,-54.27349
2023-02-07 09:54:00+00:00,35.0,16.02,31.0,19.13,12.01,47.59359,-54.27349
2023-02-07 10:04:00+00:00,37.0,13.92,36.0,16.28,12.01,47.59359,-54.27349
2023-02-07 10:14:00+00:00,39.0,13.62,36.0,15.43,12.01,47.59359,-54.27349
2023-02-07 10:24:00+00:00,29.0,15.21,28.0,18.34,12.01,47.59359,-54.27349
2023-02-07 10:34:00+00:00,42.0,13.15,51.0,15.68,12.01,47.59359,-54.27349
2023-02-07 10:44:00+00:00,43.0,14.33,49.0,16.77,12.01,47.59359,-54.27349
2023-02-07 10:54:00+00:00,35.0,14.54,35.0,16.8,12.01,47.59359,-54.27349
2023-02-07 11:04:00+00:00,43.0,14.99,44.0,17.96,12.01,47.59359,-54.27349
2023-02-07 11:14:00+00:00,43.0,15.27,44.0,17.66,11.93,47.59359,-54.27349
2023-02-07 11:24:00+00:00,44.0,14.85,36.0,16.69,11.93,47.59359,-54.27349
2023-02-07 11:34:00+00:00,39.0,13.68,36.0,15.3,11.93,47.59359,-54.27349
2023-02-07 11:44:00+00:00,32.0,15.53,33.0,17.98,11.93,47.59359,-54.27349
2023-02-07 11:54:00+00:00,36.0,15.98,38.0,18.92,11.93,47.59359,-54.27349
2023-02-07 12:04:00+00:00,34.0,16.08,38.0,18.3,11.93,47.59359,-54.27349
2023-02-07 12:14:00+00:00,37.0,14.86,37.0,18.66,12.33,47.59359,-54.27349
2023-02-07 12:24:00+00:00,35.0,14.76,38.0,16.43,12.33,47.59359,-54.27349
2023-02-07 12:34:00+00:00,30.0,15.64,25.0,17.38,12.33,47.59359,-54.27349
2023-02-07 12:44:00+00:00,33.0,14.58,33.0,16.83,12.33,47.59359,-54.27349
2023-02-07 12:54:00+00:00,36.0,15.12,37.0,16.55,12.33,47.59359,-54.27349
2023-02-07 13:04:00+00:00,32.0,15.09,28.0,16.93,12.33,47.59359,-54.27349
2023-02-07 13:14:00+00:00,32.0,14.45,29.0,16.25,12.97,47.59359,-54.27349
2023-02-07 13:24:00+00:00,35.0,13.96,36.0,15.54,12.97,47.59359,-54.27349
2023-02-07 13:34:00+00:00,37.0,12.41,24.0,15.38,12.97,47.59359,-54.27349
2023-02-07 13:44:00+00:00,39.0,14.02,35.0,15.8,12.97,47.59359,-54.27349
2023-02-07 13:54:00+00:00,29.0,14.15,32.0,16.15,12.97,47.59359,-54.27349
2023-02-07 14:04:00+00:00,36.0,13.59,33.0,15.02,12.97,47.59359,-54.27349
2023-02-07 14:14:00+00:00,35.0,13.94,30.0,15.93,13.44,47.59359,-54.27349
2023-02-07 14:24:00+00:00,37.0,13.94,33.0,17.43,13.44,47.59359,-54.27349
2023-02-07 14:34:00+00:00,49.0,12.83,55.0,15.74,13.44,47.59359,-54.27349
2023-02-07 14:44:00+00:00,49.0,13.59,52.0,15.45,13.44,47.59359,-54.27349
2023-02-07 14:54:00+00:00,46.0,14.17,43.0,17.11,13.44,47.59359,-54.27349
2023-02-07 15:04:00+00:00,43.0,14.69,46.0,17.44,13.44,47.59359,-54.27349
2023-02-07 15:14:00+00:00,48.0,14.28,55.0,17.78,13.84,47.59359,-54.27349
2023-02-07 15:24:00+00:00,52.0,13.71,58.0,16.4,13.84,47.59359,-54.27349
2023-02-07 15:34:00+00:00,52.0,15.11,58.0,17.52,13.84,47.59359,-54.27349
2023-02-07 15:44:00+00:00,52.0,12.5,53.0,15.81,13.84,47.59359,-54.27349
2023-02-07 15:54:00+00:00,55.0,13.23,56.0,16.52,13.84,47.59359,-54.27349
2023-02-07 16:04:00+00:00,44.0,13.48,52.0,15.72,13.84,47.59359,-54.27349
2023-02-07 16:14:00+00:00,48.0,13.74,44.0,16.27,13.68,47.59359,-54.27349
2023-02-07 16:24:00+00:00,49.0,11.95,45.0,13.66,13.68,47.59359,-54.27349
2023-02-07 16:34:00+00:00,54.0,12.38,52.0,14.69,13.68,47.59359,-54.27349
2023-02-07 16:44:00+00:00,53.0,12.59,58.0,14.32,13.68,47.59359,-54.27349
2023-02-07 16:54:00+00:00,53.0,12.27,53.0,13.78,13.68,47.59359,-54.27349
2023-02-07 17:04:00+00:00,53.0,12.75,50.0,14.11,13.68,47.59359,-54.27349
2023-02-07 17:14:00+00:00,49.0,14.1,49.0,15.84,13.53,47.59359,-54.27349
2023-02-07 17:24:00+00:00,53.0,13.24,50.0,15.24,13.53,47.59359,-54.27349
2023-02-07 17:34:00+00:00,49.0,13.21,48.0,14.58,13.53,47.59359,-54.27349
2023-02-07 17:44:00+00:00,49.0,12.21,47.0,13.44,13.53,47.59359,-54.27349
2023-02-07 17:54:00+00:00,44.0,13.84,43.0,17.25,13.53,47.59359,-54.27349
2023-02-07 18:04:00+00:00,56.0,13.42,54.0,16.06,13.53,47.59359,-54.27349
2023-02-07 18:14:00+00:00,54.0,14.51,52.0,16.28,14.0,47.59359,-54.27349
2023-02-07 18:24:00+00:00,50.0,11.89,51.0,14.52,14.0,47.59359,-54.27349
2023-02-07 18:34:00+00:00,61.0,12.79,62.0,14.5,14.0,47.59359,-54.27349
2023-02-07 18:44:00+00:00,68.0,14.19,63.0,17.02,14.0,47.59359,-54.27349
2023-02-07 18:54:00+00:00,65.0,13.13,72.0,15.44,14.0,47.59359,-54.27349
2023-02-07 19:04:00+00:00,68.0,13.55,69.0,15.65,14.0,47.59359,-54.27349
2023-02-07 19:14:00+00:00,58.0,12.37,60.0,13.57,13.37,47.59359,-54.27349
2023-02-07 19:24:00+00:00,58.0,12.93,57.0,16.13,13.37,47.59359,-54.27349
2023-02-07 19:34:00+00:00,52.0,12.74,48.0,15.44,13.37,47.59359,-54.27349
2023-02-07 19:44:00+00:00,56.0,13.04,55.0,16.72,13.37,47.59359,-54.27349
2023-02-07 19:54:00+00:00,52.0,14.73,41.0,17.02,13.37,47.59359,-54.27349
2023-02-07 20:04:00+00:00,54.0,14.03,54.0,16.59,13.37,47.59359,-54.27349
2023-02-07 20:14:00+00:00,47.0,14.99,48.0,17.01,12.89,47.59359,-54.27349
2023-02-07 20:24:00+00:00,51.0,12.98,54.0,16.74,12.89,47.59359,-54.27349
2023-02-07 20:34:00+00:00,55.0,12.97,52.0,16.25,12.89,47.59359,-54.27349
2023-02-07 20:44:00+00:00,55.0,12.76,54.0,15.29,12.89,47.59359,-54.27349
2023-02-07 20:54:00+00:00,56.0,12.23,46.0,15.17,12.89,47.59359,-54.27349
2023-02-07 21:04:00+00:00,53.0,14.05,56.0,16.84,12.89,47.59359,-54.27349
2023-02-07 21:14:00+00:00,56.0,13.48,59.0,15.54,12.49,47.59359,-54.27349
2023-02-07 21:24:00+00:00,55.0,13.0,50.0,15.47,12.49,47.59359,-54.27349
2023-02-07 21:34:00+00:00,49.0,13.1,52.0,14.84,12.49,47.59359,-54.27349
2023-02-07 21:44:00+00:00,60.0,12.88,54.0,15.06,12.49,47.59359,-54.27349
2023-02-07 21:54:00+00:00,63.0,13.18,62.0,15.96,12.49,47.59359,-54.27349
2023-02-07 22:04:00+00:00,54.0,13.8,53.0,15.8,12.49,47.59359,-54.27349
2023-02-07 22:14:00+00:00,69.0,10.85,73.0,13.53,12.41,47.59359,-54.27349
2023-02-07 22:24:00+00:00,56.0,14.0,45.0,16.85,12.41,47.59359,-54.27349
2023-02-07 22:34:00+00:00,68.0,13.03,69.0,15.03,12.41,47.59359,-54.27349
2023-02-07 22:44:00+00:00,66.0,12.47,70.0,14.88,12.41,47.59359,-54.27349
2023-02-07 22:54:00+00:00,52.0,14.2,49.0,15.77,12.41,47.59359,-54.27349
2023-02-07 23:04:00+00:00,65.0,14.15,66.0,17.41,12.41,47.59359,-54.27349
2023-02-07 23:14:00+00:00,69.0,11.88,69.0,14.09,12.41,47.59359,-54.27349
2023-02-07 23:24:00+00:00,57.0,13.21,53.0,15.38,12.41,47.59359,-54.27349
2023-02-07 23:34:00+00:00,59.0,12.75,53.0,16.25,12.41,47.59359,-54.27349
2023-02-07 23:44:00+00:00,72.0,11.64,74.0,15.8,12.41,47.59359,-54.27349
2023-02-07 23:54:00+00:00,65.0,13.24,66.0,16.29,12.41,47.59359,-54.27349
